Tracking 29892 objects as of 21-Nov-2024
HD Live streaming from Space Station
objects crossing your sky now

RUBIN 3/SL-8

Track RUBIN 3/SL-8 now!
10-day predictions
RUBIN 3/SL-8 is classified as:


NORAD ID: 27561
Int'l Code: 2002-054C
Perigee: 675.2 km
Apogee: 740.1 km
Inclination: 98.5 °
Period: 98.8 minutes
Semi major axis: 7078 km
RCS: 7.5153 m2 (large)
Launch date: November 28, 2002
Source: Germany (GER)
Launch site: PLESETSK MISSILE AND SPACE COMPLEX (PKMTR)
Your satellite tracking list
Your tracking list is empty




NASA's NSSDC Master Catalog

Two Line Element Set (TLE):
1 27561U 02054C   24325.81794006  .00000870  00000-0  19855-3 0  9999
2 27561  98.5139 163.4420 0045891  98.3363 262.3042 14.57733892167111
Source of the keplerian elements: AFSPC